Location: Observatorio del Centro Ecologico de Sonora
(29.0667°N, 110.9333°W)
Time: 17:59:20
(UTC-07:00)

ISS - Visible Passes

Search period start: 01 March 2015 00:00
Search period end: 11 March 2015 00:00
Orbit: 397 x 407 km, 51.6° (Epoch: 01 March)

Date Brightness Start Highest point End Pass type
(mag) Time Alt. Az. Time Alt. Az. Time Alt. Az.
06 Mar -0.4 06:00:21 10° SSE 06:02:24 16° SE 06:04:34 10° E visible
08 Mar -2.5 05:49:18 10° SSW 05:52:26 49° SE 05:55:33 10° NE visible
09 Mar -1.0 04:58:30 18° SSE 04:59:21 20° SE 05:01:51 10° ENE visible
10 Mar -3.1 05:40:55 26° WSW 05:42:25 49° NW 05:45:34 10° NNE visible
